User: anonymous   Login
Location: Unspecified
(0.0000°N, 0.0000°E)
Time: 00:17:08
(UTC+02:00)
Language:

Fermi - Orbit

View from above orbital plane
View from above orbital plane
View from above satellite
View from above satellite

Ground track
Ground track

The orbit data is extracted from the following two-line orbital elements,

1 33053U 08029A   19294.43193133  .00000490  00000-0  11275-4 0  9998
2 33053  25.5829 294.8221 0012669 108.9386 251.2523 15.11263968626987
Epoch (UTC): 21 October 2019 10:21:58
Eccentricity: 0.0012669
inclination: 25.5829°
perigee height: 523 km
apogee height: 541 km
right ascension of ascending node: 294.8221°
argument of perigee: 108.9386°
revolutions per day: 15.11263968
mean anomaly at epoch: 251.2523°
orbit number at epoch: 62698

The dashed part of the orbit path shows where the satellite is in the earth's shadow,  

DLR